This is the latest recevied weather packets stored in our database for station/object OSTR-WX. If no packets are shown the sender has not sent any weather packets the latest 10 day(s).
| Time | Temp. | Humidity | Pressure | Rain* | Wind** | Luminosity | Snow |
|---|---|---|---|---|---|---|---|
| 1777700867 | 7.22° C | 89% | 1027.4 hPa | - | - | - | - |
| 1777699910 | 6.11° C | 91% | 1027.6 hPa | - | - | - | - |
| 1777698952 | 4.44° C | 94% | 1027.7 hPa | - | - | - | - |
| 1777697996 | 3.33° C | 95% | 1027.9 hPa | - | - | - | - |
| 1777697038 | 2.78° C | 96% | 1027.9 hPa | - | - | - | - |
| 1777696081 | 2.22° C | 95% | 1027.8 hPa | - | - | - | - |
| 1777695124 | 2.22° C | 95% | 1027.8 hPa | - | - | - | - |
| 1777694175 | 2.22° C | 94% | 1027.8 hPa | - | - | - | - |
| 1777694168 | 2.22° C | 94% | 1027.8 hPa | - | - | - | - |
| 1777693216 | 2.22° C | 94% | 1027.7 hPa | - | - | - | - |
| 1777693210 | 2.22° C | 94% | 1027.7 hPa | - | - | - | - |
| 1777692253 | 2.22° C | 94% | 1027.7 hPa | - | - | - | - |
| 1777691303 | 2.22° C | 94% | 1027.6 hPa | - | - | - | - |
| 1777691296 | 2.22° C | 94% | 1027.6 hPa | - | - | - | - |
| 1777690345 | 2.22° C | 94% | 1027.6 hPa | - | - | - | - |
| 1777690339 | 2.22° C | 94% | 1027.6 hPa | - | - | - | - |
| 1777689383 | 2.22° C | 93% | 1027.6 hPa | - | - | - | - |
| 1777688434 | 2.78° C | 93% | 1027.6 hPa | - | - | - | - |
| 1777688427 | 2.78° C | 93% | 1027.6 hPa | - | - | - | - |
| 1777687469 | 2.78° C | 93% | 1027.5 hPa | - | - | - | - |
| 1777686514 | 2.78° C | 93% | 1027.6 hPa | - | - | - | - |
| 1777685554 | 2.78° C | 92% | 1027.4 hPa | - | - | - | - |
| 1777684597 | 3.33° C | 91% | 1027.5 hPa | - | - | - | - |
| 1777683642 | 3.33° C | 92% | 1027.5 hPa | - | - | - | - |
| 1777682683 | 3.89° C | 91% | 1027.5 hPa | - | - | - | - |
* Rain since midnight (hover to see other rain measurements)
** Current wind speed in m/s (hover to see current wind gust speed)